Voltar ao catálogo

STARLINK-35667

AtivoComunicaçõesVLEO
NORAD 66400·PAYLOAD·🇺🇸 United States

Lançado Nov 8, 2025 de Cape Canaveral Space Force Station

Loading…

Próximas Passagens (próximas 24 horas)

TLE

AtualizadoSource: CelesTrak SupGP

Época: Sep 15, 2026, 04:09 UTC

1 66400C 25257W   26258.17340278  .00000528  00000+0  15594-4 0  2582
2 66400  53.1584  52.7606 0000967  89.9570 228.2890 15.34377722    13

Acompanhe STARLINK-35667 em tempo real com AllMySat

Download on the App Store